Location: Brompton
(51.4000°N, 0.5333°E)
Time: 16:32:15
(UTC+00:00)

CZ-2C R/B - Pass Details

Date: 11 May 2021
Orbit: 640 x 703 km, 98.3° (Epoch: 21 June)

Event Time Altitude Azimuth Distance (km) Brightness Sun altitude
Rises 21:07:35 0° 14° (NNE) 2,971 7.6 -11.5°
Reaches altitude 10° 21:09:47 10° 13° (NNE) 2,062 6.8 -11.8°
Maximum altitude 21:14:17 82° 287° (WNW) 668 3.8 -12.2°
Drops below altitude 10° 21:18:49 10° 200° (SSW) 2,078 5.9 -12.6°
Enters shadow 21:20:47 - 199° (SSW) 2,890 6.7 -12.8°
